DAL2464 KBOS-KATL

Flight info

Callsign DAL2464
Flight time 2h 12m
Altitude 34000
Route BLZZR6 BLZZR BAF Q448 PTW J48 BYRDD/N0453F360 J48 MOL FLASK OZZZI2
Aircraft A321/M-SDE3FGHIRWY/LB1

Departure

Time 2026-05-04 23:00
Airport Boston Logan International Airport (KBOS)

Arrival

Time 2026-05-05 01:13
Airport Hartsfield Jackson Atlanta International Airport (KATL)
Time Latitude Longitude Altitude Speed Heading
2026-05-04 22:14 42.36482 -71.02307 26 ft 0 kts 81°
2026-05-04 22:31 42.36505 -71.02111 26 ft 209 kts 81°
2026-05-04 22:31 42.36513 -71.02004 29 ft 0 kts 56°
2026-05-04 22:31 42.36482 -71.02307 26 ft 0 kts 81°
2026-05-04 22:37 42.36483 -71.02310 27 ft 16 kts 81°
2026-05-04 22:41 42.36482 -71.02323 26 ft 4 kts 87°
2026-05-04 22:41 42.36491 -71.02364 27 ft 4 kts 150°
2026-05-04 22:41 42.36499 -71.02369 30 ft 1 kts 168°
2026-05-04 22:41 42.36474 -71.02370 28 ft 4 kts 187°
2026-05-04 22:42 42.36452 -71.02372 26 ft 4 kts 183°
2026-05-04 22:42 42.36426 -71.02369 28 ft 4 kts 168°
2026-05-04 22:42 42.36407 -71.02357 27 ft 3 kts 151°
2026-05-04 22:42 42.36384 -71.02341 28 ft 4 kts 155°
2026-05-04 22:43 42.36358 -71.02333 26 ft 4 kts 176°
2026-05-04 22:43 42.36342 -71.02334 26 ft 4 kts 184°
2026-05-04 22:43 42.36335 -71.02335 28 ft 4 kts 184°
2026-05-04 22:43 42.36308 -71.02338 25 ft 4 kts 184°
2026-05-04 22:44 42.36281 -71.02340 25 ft 4 kts 184°
2026-05-04 22:44 42.36268 -71.02341 27 ft 0 kts 184°
2026-05-04 22:46 42.36267 -71.02341 27 ft 1 kts 184°
2026-05-04 22:46 42.36230 -71.02344 27 ft 10 kts 183°
2026-05-04 22:46 42.36153 -71.02349 27 ft 10 kts 179°
2026-05-04 22:46 42.36097 -71.02327 26 ft 7 kts 154°
2026-05-04 22:47 42.36057 -71.02293 27 ft 9 kts 142°
2026-05-04 22:47 42.36012 -71.02209 28 ft 13 kts 121°
2026-05-04 22:47 42.35957 -71.02088 29 ft 17 kts 120°
2026-05-04 22:47 42.35892 -71.01942 25 ft 19 kts 120°
2026-05-04 22:48 42.35842 -71.01768 27 ft 21 kts 101°
2026-05-04 22:48 42.35842 -71.01584 25 ft 16 kts 48°
2026-05-04 22:48 42.35941 -71.01525 26 ft 16 kts 20°
2026-05-04 22:48 42.36025 -71.01485 28 ft 12 kts 20°
2026-05-04 22:49 42.36072 -71.01462 27 ft 6 kts 20°
2026-05-04 22:49 42.36121 -71.01438 28 ft 11 kts 19°
2026-05-04 22:49 42.36216 -71.01392 27 ft 18 kts 20°
2026-05-04 22:49 42.36350 -71.01330 27 ft 19 kts 18°
2026-05-04 22:50 42.36464 -71.01275 29 ft 16 kts 20°
2026-05-04 22:50 42.36550 -71.01204 26 ft 16 kts 66°
2026-05-04 22:50 42.36515 -71.01036 28 ft 21 kts 112°
2026-05-04 22:50 42.36496 -71.00965 27 ft 0 kts 103°
2026-05-04 22:51 42.36500 -71.00923 25 ft 11 kts 66°
2026-05-04 22:51 42.36618 -71.00847 28 ft 26 kts 19°
2026-05-04 22:51 42.36798 -71.00760 27 ft 27 kts 18°
2026-05-04 22:51 42.36959 -71.00681 27 ft 17 kts 18°
2026-05-04 22:52 42.37025 -71.00649 29 ft 0 kts 20°
2026-05-04 22:53 42.37040 -71.00642 29 ft 8 kts 20°
2026-05-04 22:53 42.37130 -71.00598 28 ft 20 kts 19°
2026-05-04 22:54 42.37301 -71.00517 28 ft 31 kts 20°
2026-05-04 22:54 42.37533 -71.00403 27 ft 35 kts 23°
2026-05-04 22:54 42.37686 -71.00332 27 ft 20 kts 19°
2026-05-04 22:54 42.37765 -71.00346 27 ft 8 kts 311°
2026-05-04 22:55 42.37768 -71.00352 27 ft 0 kts 307°
2026-05-04 22:58 42.37770 -71.00356 27 ft 3 kts 307°
2026-05-04 22:58 42.37794 -71.00441 30 ft 15 kts 267°
2026-05-04 22:58 42.37725 -71.00506 27 ft 0 kts 199°
2026-05-04 22:59 42.37693 -71.00521 27 ft 23 kts 199°
2026-05-04 23:00 42.37309 -71.00709 28 ft 91 kts 200°
2026-05-04 23:00 42.36546 -71.01076 30 ft 140 kts 200°
2026-05-04 23:00 42.35591 -71.01515 516 ft 145 kts 202°
2026-05-04 23:00 42.34591 -71.01684 1066 ft 152 kts 176°
2026-05-04 23:01 42.33614 -71.01050 1697 ft 165 kts 144°
2026-05-04 23:01 42.32839 -70.99807 2019 ft 182 kts 136°
2026-05-04 23:01 42.32012 -70.98383 2167 ft 202 kts 134°
2026-05-04 23:01 42.31328 -70.96612 2298 ft 227 kts 108°
2026-05-04 23:02 42.31306 -70.94375 2444 ft 253 kts 81°
2026-05-04 23:02 42.31669 -70.91922 2657 ft 278 kts 80°
2026-05-04 23:02 42.32051 -70.89315 3327 ft 286 kts 80°
2026-05-04 23:02 42.32435 -70.86657 4077 ft 291 kts 80°
2026-05-04 23:03 42.32821 -70.83951 4883 ft 294 kts 81°
2026-05-04 23:03 42.32946 -70.81184 5647 ft 297 kts 96°
2026-05-04 23:03 42.32547 -70.78431 6381 ft 299 kts 111°
2026-05-04 23:03 42.31640 -70.75902 7088 ft 300 kts 127°
2026-05-04 23:04 42.30248 -70.73819 7778 ft 299 kts 146°
2026-05-04 23:04 42.28460 -70.72423 8452 ft 297 kts 165°
2026-05-04 23:04 42.26451 -70.71870 9108 ft 293 kts 185°
2026-05-04 23:04 42.24438 -70.72155 9765 ft 292 kts 197°
2026-05-04 23:05 42.22436 -70.72730 10332 ft 296 kts 205°
2026-05-04 23:05 42.20643 -70.73978 10832 ft 294 kts 223°
2026-05-04 23:05 42.19180 -70.75926 11393 ft 295 kts 237°
2026-05-04 23:05 42.18175 -70.78408 11544 ft 311 kts 253°
2026-05-04 23:06 42.17694 -70.81294 11680 ft 330 kts 262°
2026-05-04 23:06 42.17286 -70.84397 12061 ft 340 kts 261°
2026-05-04 23:06 42.16861 -70.87559 12678 ft 345 kts 261°
2026-05-04 23:06 42.16426 -70.90766 13318 ft 349 kts 261°
2026-05-04 23:07 42.16086 -70.94024 13890 ft 353 kts 268°
2026-05-04 23:07 42.16198 -70.97340 14433 ft 356 kts 276°
2026-05-04 23:07 42.16449 -71.00675 15019 ft 359 kts 276°
2026-05-04 23:07 42.16702 -71.04033 15595 ft 361 kts 276°
2026-05-04 23:08 42.16955 -71.07413 16177 ft 364 kts 276°
2026-05-04 23:08 42.17203 -71.10818 16744 ft 366 kts 276°
2026-05-04 23:08 42.17448 -71.14235 17332 ft 368 kts 276°
2026-05-04 23:08 42.17694 -71.17688 17893 ft 370 kts 276°
2026-05-04 23:09 42.17938 -71.21105 18391 ft 372 kts 276°
2026-05-04 23:09 42.18188 -71.24591 18850 ft 375 kts 276°
2026-05-04 23:09 42.18440 -71.28103 19324 ft 377 kts 276°
2026-05-04 23:09 42.18688 -71.31636 19793 ft 379 kts 276°
2026-05-04 23:10 42.18936 -71.35183 20241 ft 381 kts 277°
2026-05-04 23:10 42.19185 -71.38754 20702 ft 384 kts 277°
2026-05-04 23:10 42.19436 -71.42348 21154 ft 386 kts 277°
2026-05-04 23:10 42.19688 -71.45962 21618 ft 388 kts 277°
2026-05-04 23:11 42.19942 -71.49594 22083 ft 390 kts 277°
2026-05-04 23:11 42.20198 -71.53254 22528 ft 393 kts 277°
2026-05-04 23:11 42.20449 -71.56893 22969 ft 395 kts 277°
2026-05-04 23:11 42.20700 -71.60597 23409 ft 398 kts 277°
2026-05-04 23:12 42.20952 -71.64327 23771 ft 400 kts 277°
2026-05-04 23:12 42.21202 -71.68069 24149 ft 402 kts 277°
2026-05-04 23:12 42.21454 -71.71829 24533 ft 403 kts 277°
2026-05-04 23:12 42.21674 -71.75603 24906 ft 405 kts 274°
2026-05-04 23:13 42.21561 -71.79423 25282 ft 409 kts 269°
2026-05-04 23:13 42.21348 -71.83253 25648 ft 410 kts 269°
2026-05-04 23:13 42.21135 -71.87095 26016 ft 412 kts 269°
2026-05-04 23:13 42.20920 -71.90954 26368 ft 413 kts 269°
2026-05-04 23:14 42.20705 -71.94828 26732 ft 414 kts 269°
2026-05-04 23:14 42.20489 -71.98711 27085 ft 415 kts 269°
2026-05-04 23:14 42.20272 -72.02601 27434 ft 417 kts 269°
2026-05-04 23:14 42.20055 -72.06510 27737 ft 419 kts 269°
2026-05-04 23:15 42.19837 -72.10439 28061 ft 421 kts 269°
2026-05-04 23:15 42.19619 -72.14334 28381 ft 423 kts 269°
2026-05-04 23:15 42.19393 -72.18301 28723 ft 423 kts 269°
2026-05-04 23:15 42.19163 -72.22241 29161 ft 421 kts 270°
2026-05-04 23:16 42.18932 -72.26173 29603 ft 419 kts 269°
2026-05-04 23:16 42.18701 -72.30078 30077 ft 417 kts 270°
2026-05-04 23:16 42.18473 -72.33931 30464 ft 415 kts 270°
2026-05-04 23:16 42.18245 -72.37807 30815 ft 415 kts 270°
2026-05-04 23:17 42.18019 -72.41677 31145 ft 414 kts 270°
2026-05-04 23:17 42.17793 -72.45553 31474 ft 414 kts 270°
2026-05-04 23:17 42.17563 -72.49432 31810 ft 414 kts 270°
2026-05-04 23:17 42.17330 -72.53311 32149 ft 414 kts 270°
2026-05-04 23:18 42.17093 -72.57174 32475 ft 414 kts 271°
2026-05-04 23:18 42.16857 -72.60988 32795 ft 414 kts 271°
2026-05-04 23:18 42.16615 -72.64846 33153 ft 413 kts 270°
2026-05-04 23:18 42.16122 -72.68688 33486 ft 420 kts 261°
2026-05-04 23:19 42.15131 -72.72431 33766 ft 430 kts 252°
2026-05-04 23:19 42.13646 -72.75962 33830 ft 437 kts 242°
2026-05-04 23:19 42.09881 -72.82436 33835 ft 439 kts 239°
2026-05-04 23:20 42.06097 -72.88881 33833 ft 439 kts 239°
2026-05-04 23:20 42.02314 -72.95334 33831 ft 439 kts 239°
2026-05-04 23:21 41.98534 -73.01780 33860 ft 439 kts 239°
2026-05-04 23:21 41.94277 -73.07756 33822 ft 451 kts 224°
2026-05-04 23:22 41.88948 -73.12378 33840 ft 457 kts 218°
2026-05-04 23:22 41.83553 -73.16892 33844 ft 457 kts 218°
2026-05-04 23:23 41.78154 -73.21420 33855 ft 457 kts 218°
2026-05-04 23:23 41.72758 -73.25943 33848 ft 458 kts 218°
2026-05-04 23:24 41.67425 -73.30479 33849 ft 454 kts 223°
2026-05-04 23:24 41.62911 -73.36183 33860 ft 442 kts 236°
2026-05-04 23:25 41.58887 -73.42409 33852 ft 443 kts 236°
2026-05-04 23:25 41.54835 -73.48624 33857 ft 443 kts 236°
2026-05-04 23:26 41.50808 -73.54791 33842 ft 443 kts 235°
2026-05-04 23:26 41.46781 -73.60949 33876 ft 443 kts 235°
2026-05-04 23:27 41.42722 -73.67144 33857 ft 443 kts 235°
2026-05-04 23:27 41.38660 -73.73334 33858 ft 443 kts 235°
2026-05-04 23:28 41.35258 -73.78511 33863 ft 443 kts 235°
2026-05-04 23:28 41.31168 -73.84662 33856 ft 444 kts 234°
2026-05-04 23:29 41.27028 -73.90757 33860 ft 444 kts 234°
2026-05-04 23:29 41.22873 -73.96829 33845 ft 444 kts 233°
2026-05-04 23:30 41.18747 -74.02872 33850 ft 444 kts 233°
2026-05-04 23:30 41.14602 -74.08965 33877 ft 445 kts 233°
2026-05-04 23:31 41.10577 -74.15171 33869 ft 442 kts 236°
2026-05-04 23:31 41.06729 -74.21528 33860 ft 442 kts 237°
2026-05-04 23:32 41.02897 -74.27891 33869 ft 442 kts 236°
2026-05-04 23:32 40.99013 -74.34206 33871 ft 442 kts 236°
2026-05-04 23:33 40.95089 -74.40481 33859 ft 443 kts 236°
2026-05-04 23:33 40.91165 -74.46764 33855 ft 443 kts 236°
2026-05-04 23:34 40.87274 -74.53004 33862 ft 443 kts 235°
2026-05-04 23:34 40.83350 -74.59292 33868 ft 443 kts 235°
2026-05-04 23:35 40.79423 -74.65567 33871 ft 443 kts 235°
2026-05-04 23:35 40.75497 -74.71826 33863 ft 443 kts 235°
2026-05-04 23:36 40.71561 -74.78094 33853 ft 443 kts 235°
2026-05-04 23:36 40.67662 -74.84298 33859 ft 443 kts 235°
2026-05-04 23:37 40.63712 -74.90539 33863 ft 443 kts 235°
2026-05-04 23:37 40.59768 -74.96778 33874 ft 443 kts 235°
2026-05-04 23:38 40.55817 -75.03018 33885 ft 443 kts 235°
2026-05-04 23:38 40.51879 -75.09254 33872 ft 443 kts 234°
2026-05-04 23:39 40.47958 -75.15495 33905 ft 442 kts 234°
2026-05-04 23:39 40.44048 -75.21690 33910 ft 442 kts 234°
2026-05-04 23:40 40.40124 -75.27899 33890 ft 442 kts 234°
2026-05-04 23:40 40.36192 -75.34107 33896 ft 442 kts 234°
2026-05-04 23:41 40.32255 -75.40300 33900 ft 442 kts 234°
2026-05-04 23:41 40.28319 -75.46486 33899 ft 442 kts 234°
2026-05-04 23:42 40.24376 -75.52657 33904 ft 442 kts 234°
2026-05-04 23:42 40.20718 -75.58998 33894 ft 438 kts 240°
2026-05-04 23:43 40.17379 -75.65675 33900 ft 437 kts 240°
2026-05-04 23:43 40.14040 -75.72324 33900 ft 437 kts 240°
2026-05-04 23:44 40.10689 -75.78970 33894 ft 437 kts 240°
2026-05-04 23:44 40.07340 -75.85600 33904 ft 437 kts 240°
2026-05-04 23:45 40.04010 -75.92174 33895 ft 437 kts 239°
2026-05-04 23:45 40.00676 -75.98733 33891 ft 436 kts 239°
2026-05-04 23:46 39.97317 -76.05322 33892 ft 436 kts 239°
2026-05-04 23:46 39.93962 -76.11909 33886 ft 436 kts 239°
2026-05-04 23:47 39.90624 -76.18447 33880 ft 436 kts 239°
2026-05-04 23:47 39.87264 -76.25015 33877 ft 436 kts 239°
2026-05-04 23:48 39.83896 -76.31582 33873 ft 436 kts 239°
2026-05-04 23:48 39.80516 -76.38144 33877 ft 436 kts 239°
2026-05-04 23:49 39.77133 -76.44704 33878 ft 436 kts 239°
2026-05-04 23:49 39.73755 -76.51254 33878 ft 436 kts 239°
2026-05-04 23:50 39.70393 -76.57762 33878 ft 436 kts 239°
2026-05-04 23:50 39.67000 -76.64308 33869 ft 436 kts 238°
2026-05-04 23:51 39.63605 -76.70841 33870 ft 436 kts 238°
2026-05-04 23:51 39.60210 -76.77369 33878 ft 436 kts 238°
2026-05-04 23:52 39.56834 -76.83841 33887 ft 436 kts 238°
2026-05-04 23:52 39.53421 -76.90355 33897 ft 436 kts 239°
2026-05-04 23:53 39.49938 -76.96803 33888 ft 438 kts 232°
2026-05-04 23:53 39.45443 -77.02175 33898 ft 442 kts 221°
2026-05-04 23:54 39.40663 -77.07172 33904 ft 442 kts 221°
2026-05-04 23:54 39.35885 -77.12179 33921 ft 441 kts 222°
2026-05-04 23:55 39.31151 -77.17151 33909 ft 441 kts 222°
2026-05-04 23:56 39.24019 -77.24627 33927 ft 441 kts 222°
2026-05-04 23:56 39.19261 -77.29604 33929 ft 440 kts 222°
2026-05-04 23:57 39.14508 -77.34563 33926 ft 439 kts 222°
2026-05-04 23:57 39.09743 -77.39508 33913 ft 439 kts 222°
2026-05-04 23:58 39.04979 -77.44444 33922 ft 439 kts 222°
2026-05-04 23:58 39.00257 -77.49346 33914 ft 438 kts 222°
2026-05-04 23:59 38.95507 -77.54270 33914 ft 438 kts 222°
2026-05-04 23:59 38.90777 -77.59159 33899 ft 438 kts 222°
2026-05-05 00:00 38.85999 -77.64090 33908 ft 438 kts 222°
2026-05-05 00:00 38.81283 -77.68944 33912 ft 437 kts 222°
2026-05-05 00:01 38.76533 -77.73828 33916 ft 437 kts 222°
2026-05-05 00:01 38.71782 -77.78704 33917 ft 437 kts 222°
2026-05-05 00:02 38.67034 -77.83563 33920 ft 437 kts 222°
2026-05-05 00:02 38.62712 -77.88929 33929 ft 429 kts 236°
2026-05-05 00:03 38.59154 -77.95008 33929 ft 429 kts 236°
2026-05-05 00:03 38.55565 -78.01115 33924 ft 430 kts 236°
2026-05-05 00:04 38.51976 -78.07219 33920 ft 430 kts 236°
2026-05-05 00:04 38.48381 -78.13328 33911 ft 430 kts 236°
2026-05-05 00:05 38.44776 -78.19440 33915 ft 431 kts 236°
2026-05-05 00:05 38.41185 -78.25505 33925 ft 431 kts 236°
2026-05-05 00:06 38.37570 -78.31600 33921 ft 431 kts 236°
2026-05-05 00:06 38.33950 -78.37689 33932 ft 431 kts 236°
2026-05-05 00:07 38.30329 -78.43779 33918 ft 431 kts 236°
2026-05-05 00:07 38.26708 -78.49848 33937 ft 430 kts 236°
2026-05-05 00:08 38.23091 -78.55896 33941 ft 429 kts 236°
2026-05-05 00:08 38.19473 -78.61936 33943 ft 429 kts 236°
2026-05-05 00:09 38.15874 -78.67944 33939 ft 429 kts 236°
2026-05-05 00:09 38.12252 -78.73982 33952 ft 428 kts 236°
2026-05-05 00:10 38.08629 -78.79995 33978 ft 427 kts 236°
2026-05-05 00:10 38.05020 -78.85976 33984 ft 426 kts 236°
2026-05-05 00:11 38.01437 -78.91897 33978 ft 425 kts 236°
2026-05-05 00:11 37.98018 -78.97548 33968 ft 425 kts 236°
2026-05-05 00:12 37.94425 -79.03486 33965 ft 424 kts 236°
2026-05-05 00:12 37.90826 -79.09413 33954 ft 424 kts 236°
2026-05-05 00:13 37.87055 -79.15161 33953 ft 425 kts 232°
2026-05-05 00:13 37.83057 -79.20612 33948 ft 425 kts 230°
2026-05-05 00:14 37.79008 -79.26063 33936 ft 424 kts 231°
2026-05-05 00:14 37.75021 -79.31561 33932 ft 424 kts 231°
2026-05-05 00:15 37.71058 -79.37082 33936 ft 424 kts 231°
2026-05-05 00:15 37.67094 -79.42595 33938 ft 423 kts 232°
2026-05-05 00:16 37.63154 -79.48042 33954 ft 422 kts 232°
2026-05-05 00:16 37.59178 -79.53511 33964 ft 422 kts 231°
2026-05-05 00:17 37.55201 -79.58977 33972 ft 422 kts 232°
2026-05-05 00:17 37.51238 -79.64422 33978 ft 421 kts 232°
2026-05-05 00:18 37.47276 -79.69859 33971 ft 421 kts 232°
2026-05-05 00:18 37.43317 -79.75288 33977 ft 420 kts 232°
2026-05-05 00:19 37.40025 -79.79790 33985 ft 420 kts 232°
2026-05-05 00:19 37.36062 -79.85193 33990 ft 419 kts 232°
2026-05-05 00:20 37.32109 -79.90576 33991 ft 419 kts 232°
2026-05-05 00:20 37.28162 -79.95956 33963 ft 418 kts 232°
2026-05-05 00:21 37.24221 -80.01310 33983 ft 417 kts 231°
2026-05-05 00:21 37.20310 -80.06609 34008 ft 416 kts 231°
2026-05-05 00:22 37.16381 -80.11929 34016 ft 415 kts 231°
2026-05-05 00:22 37.12449 -80.17245 34021 ft 415 kts 231°
2026-05-05 00:23 37.08525 -80.22549 34022 ft 415 kts 231°
2026-05-05 00:23 37.04590 -80.27841 34024 ft 414 kts 232°
2026-05-05 00:24 37.00655 -80.33109 34032 ft 414 kts 231°
2026-05-05 00:24 36.96648 -80.38282 34024 ft 414 kts 230°
2026-05-05 00:25 36.92626 -80.43375 34011 ft 413 kts 230°
2026-05-05 00:25 36.88620 -80.48461 33998 ft 413 kts 230°
2026-05-05 00:26 36.84602 -80.53586 33983 ft 413 kts 231°
2026-05-05 00:26 36.80591 -80.58707 33992 ft 412 kts 230°
2026-05-05 00:27 36.76580 -80.63810 34040 ft 412 kts 230°
2026-05-05 00:27 36.72569 -80.68905 34042 ft 411 kts 230°
2026-05-05 00:28 36.68548 -80.73992 34048 ft 411 kts 230°
2026-05-05 00:28 36.64537 -80.79070 34043 ft 411 kts 230°
2026-05-05 00:29 36.60547 -80.84116 34013 ft 411 kts 230°
2026-05-05 00:29 36.56524 -80.89189 34004 ft 412 kts 230°
2026-05-05 00:30 36.52495 -80.94266 33984 ft 412 kts 230°
2026-05-05 00:30 36.48460 -80.99338 34010 ft 412 kts 230°
2026-05-05 00:31 36.44434 -81.04397 34031 ft 411 kts 230°
2026-05-05 00:31 36.40410 -81.09448 34027 ft 411 kts 230°
2026-05-05 00:32 36.36385 -81.14491 34043 ft 411 kts 230°
2026-05-05 00:32 36.32363 -81.19514 34049 ft 411 kts 230°
2026-05-05 00:33 36.28356 -81.24514 34051 ft 411 kts 230°
2026-05-05 00:33 36.24331 -81.29543 34051 ft 411 kts 230°
2026-05-05 00:34 36.20306 -81.34567 34040 ft 411 kts 230°
2026-05-05 00:34 36.16273 -81.39580 33997 ft 411 kts 230°
2026-05-05 00:35 36.12235 -81.44587 33993 ft 411 kts 230°
2026-05-05 00:35 36.08193 -81.49603 33976 ft 411 kts 230°
2026-05-05 00:36 36.04158 -81.54611 33971 ft 411 kts 230°
2026-05-05 00:36 36.00146 -81.59577 33970 ft 411 kts 230°
2026-05-05 00:37 35.96099 -81.64571 33968 ft 411 kts 230°
2026-05-05 00:37 35.92060 -81.69556 33969 ft 410 kts 229°
2026-05-05 00:38 35.88021 -81.74537 33985 ft 410 kts 229°
2026-05-05 00:38 35.83974 -81.79502 34042 ft 410 kts 229°
2026-05-05 00:39 35.79928 -81.84462 34035 ft 410 kts 229°
2026-05-05 00:39 35.75866 -81.89396 34030 ft 410 kts 229°
2026-05-05 00:40 35.71762 -81.94292 34016 ft 410 kts 229°
2026-05-05 00:40 35.67689 -81.99134 34018 ft 410 kts 229°
2026-05-05 00:41 35.63594 -82.04009 34019 ft 410 kts 229°
2026-05-05 00:41 35.59504 -82.08886 34022 ft 410 kts 229°
2026-05-05 00:42 35.55406 -82.13765 34019 ft 410 kts 229°
2026-05-05 00:42 35.51312 -82.18640 34010 ft 410 kts 229°
2026-05-05 00:43 35.47206 -82.23515 34001 ft 410 kts 228°
2026-05-05 00:43 35.43108 -82.28374 34024 ft 410 kts 228°
2026-05-05 00:44 35.39059 -82.33287 34020 ft 409 kts 230°
2026-05-05 00:44 35.35096 -82.38265 34015 ft 408 kts 230°
2026-05-05 00:45 35.31127 -82.43230 34004 ft 408 kts 229°
2026-05-05 00:45 35.27165 -82.48148 34004 ft 408 kts 229°
2026-05-05 00:46 35.23171 -82.53089 34018 ft 408 kts 229°
2026-05-05 00:46 35.19168 -82.58017 34026 ft 408 kts 229°
2026-05-05 00:47 35.15160 -82.62950 34016 ft 408 kts 228°
2026-05-05 00:47 35.11121 -82.67783 34020 ft 408 kts 228°
2026-05-05 00:48 35.07064 -82.72577 34025 ft 409 kts 227°
2026-05-05 00:48 35.02974 -82.77410 34010 ft 409 kts 227°
2026-05-05 00:49 34.98881 -82.82255 34008 ft 410 kts 227°
2026-05-05 00:49 34.94772 -82.87108 34009 ft 412 kts 227°
2026-05-05 00:50 34.90623 -82.91955 34009 ft 413 kts 227°
2026-05-05 00:50 34.86447 -82.96780 34015 ft 414 kts 227°
2026-05-05 00:51 34.82291 -83.01580 34013 ft 415 kts 227°
2026-05-05 00:51 34.78088 -83.06432 33997 ft 418 kts 226°
2026-05-05 00:51 34.75996 -83.08845 33265 ft 410 kts 226°
2026-05-05 00:52 34.73909 -83.11251 31404 ft 419 kts 226°
2026-05-05 00:52 34.71770 -83.13714 29482 ft 428 kts 226°
2026-05-05 00:52 34.69585 -83.16230 27450 ft 435 kts 226°
2026-05-05 00:52 34.67399 -83.18747 26360 ft 430 kts 226°
2026-05-05 00:53 34.65258 -83.21203 26199 ft 415 kts 226°
2026-05-05 00:53 34.63189 -83.23569 25837 ft 405 kts 226°
2026-05-05 00:53 34.61144 -83.25916 25216 ft 404 kts 226°
2026-05-05 00:53 34.59110 -83.28254 24610 ft 402 kts 226°
2026-05-05 00:54 34.57087 -83.30585 24004 ft 401 kts 226°
2026-05-05 00:54 34.55066 -83.32906 23354 ft 399 kts 226°
2026-05-05 00:54 34.53058 -83.35213 22752 ft 395 kts 226°
2026-05-05 00:54 34.51122 -83.37437 22209 ft 390 kts 226°
2026-05-05 00:55 34.49165 -83.39687 21667 ft 385 kts 226°
2026-05-05 00:55 34.47239 -83.41904 21148 ft 380 kts 226°
2026-05-05 00:55 34.45334 -83.44094 20632 ft 375 kts 226°
2026-05-05 00:55 34.43452 -83.46248 20148 ft 370 kts 225°
2026-05-05 00:56 34.41584 -83.48380 19687 ft 365 kts 225°
2026-05-05 00:56 34.39749 -83.50484 19233 ft 361 kts 225°
2026-05-05 00:56 34.37930 -83.52569 18793 ft 358 kts 225°
2026-05-05 00:56 34.36121 -83.54645 18359 ft 356 kts 225°
2026-05-05 00:57 34.34334 -83.56691 17882 ft 353 kts 225°
2026-05-05 00:57 34.32552 -83.58731 17448 ft 351 kts 225°
2026-05-05 00:57 34.30779 -83.60755 16960 ft 349 kts 225°
2026-05-05 00:57 34.29014 -83.62763 16521 ft 348 kts 224°
2026-05-05 00:58 34.27255 -83.64711 16075 ft 346 kts 223°
2026-05-05 00:58 34.25455 -83.66644 15619 ft 345 kts 223°
2026-05-05 00:58 34.23652 -83.68549 15154 ft 344 kts 222°
2026-05-05 00:58 34.21849 -83.70440 14680 ft 342 kts 222°
2026-05-05 00:59 34.20060 -83.72326 14212 ft 341 kts 222°
2026-05-05 00:59 34.18279 -83.74211 13709 ft 340 kts 222°
2026-05-05 00:59 34.16503 -83.76093 13197 ft 338 kts 222°
2026-05-05 00:59 34.14739 -83.77959 12706 ft 336 kts 222°
2026-05-05 01:00 34.12984 -83.79814 12202 ft 334 kts 222°
2026-05-05 01:00 34.11237 -83.81662 11706 ft 333 kts 222°
2026-05-05 01:00 34.09500 -83.83502 11199 ft 331 kts 221°
2026-05-05 01:00 34.07796 -83.85315 10800 ft 327 kts 222°
2026-05-05 01:01 34.06131 -83.87102 10679 ft 314 kts 222°
2026-05-05 01:01 34.04531 -83.88825 10553 ft 302 kts 222°
2026-05-05 01:01 34.02997 -83.90476 10441 ft 290 kts 222°
2026-05-05 01:01 34.01508 -83.92079 10198 ft 284 kts 222°
2026-05-05 01:02 34.00045 -83.93649 9955 ft 280 kts 222°
2026-05-05 01:02 33.98573 -83.95172 9826 ft 279 kts 216°
2026-05-05 01:02 33.96865 -83.96264 9696 ft 279 kts 200°
2026-05-05 01:02 33.94957 -83.96725 9499 ft 282 kts 184°
2026-05-05 01:03 33.93001 -83.96664 9141 ft 281 kts 179°
2026-05-05 01:03 33.91057 -83.96570 8876 ft 277 kts 179°
2026-05-05 01:03 33.89125 -83.96483 8813 ft 278 kts 180°
2026-05-05 01:03 33.87190 -83.96400 8712 ft 278 kts 180°
2026-05-05 01:04 33.85258 -83.96320 8598 ft 278 kts 180°
2026-05-05 01:04 33.81428 -83.96161 8373 ft 277 kts 180°
2026-05-05 01:04 33.79505 -83.96079 8254 ft 276 kts 180°
2026-05-05 01:05 33.77590 -83.95997 8139 ft 276 kts 179°
2026-05-05 01:05 33.75679 -83.96052 8031 ft 274 kts 190°
2026-05-05 01:05 33.73850 -83.96652 7770 ft 272 kts 203°
2026-05-05 01:05 33.72114 -83.97528 7488 ft 270 kts 203°
2026-05-05 01:06 33.70384 -83.98396 7215 ft 268 kts 203°
2026-05-05 01:06 33.68665 -83.99255 6943 ft 267 kts 203°
2026-05-05 01:06 33.66998 -84.00224 6670 ft 265 kts 215°
2026-05-05 01:06 33.65710 -84.01791 6401 ft 264 kts 236°
2026-05-05 01:07 33.65007 -84.03797 6124 ft 260 kts 257°
2026-05-05 01:07 33.64906 -84.05920 5865 ft 256 kts 268°
2026-05-05 01:07 33.64921 -84.08038 5605 ft 251 kts 268°
2026-05-05 01:07 33.64928 -84.10111 5354 ft 246 kts 267°
2026-05-05 01:08 33.64933 -84.12140 5108 ft 241 kts 267°
2026-05-05 01:08 33.64936 -84.14132 4857 ft 237 kts 267°
2026-05-05 01:08 33.64939 -84.16089 4608 ft 230 kts 267°
2026-05-05 01:08 33.64941 -84.17982 4339 ft 224 kts 267°
2026-05-05 01:09 33.64943 -84.18976 4218 ft 220 kts 267°
2026-05-05 01:09 33.64946 -84.20778 4047 ft 210 kts 266°
2026-05-05 01:09 33.64948 -84.22516 4010 ft 207 kts 266°
2026-05-05 01:09 33.64946 -84.24248 3877 ft 209 kts 266°
2026-05-05 01:10 33.64944 -84.26012 3469 ft 212 kts 266°
2026-05-05 01:10 33.64946 -84.27776 3161 ft 210 kts 266°
2026-05-05 01:10 33.64948 -84.29521 2884 ft 207 kts 266°
2026-05-05 01:10 33.64950 -84.31214 2632 ft 196 kts 266°
2026-05-05 01:11 33.64953 -84.32778 2368 ft 180 kts 265°
2026-05-05 01:11 33.64954 -84.34221 2158 ft 166 kts 265°
2026-05-05 01:11 33.64954 -84.35573 1929 ft 159 kts 265°
2026-05-05 01:11 33.64954 -84.36873 1726 ft 157 kts 266°
2026-05-05 01:12 33.64954 -84.38165 1498 ft 153 kts 268°
2026-05-05 01:12 33.64954 -84.39436 1294 ft 151 kts 269°
2026-05-05 01:12 33.64955 -84.40697 1107 ft 151 kts 269°
2026-05-05 01:12 33.64960 -84.41941 1009 ft 144 kts 270°
2026-05-05 01:13 33.64954 -84.42918 1006 ft 75 kts 270°
2026-05-05 01:13 33.64900 -84.43248 1007 ft 21 kts 240°
2026-05-05 01:13 33.64875 -84.43299 1006 ft 14 kts 239°
2026-05-05 01:13 33.64844 -84.43474 1006 ft 14 kts 266°
2026-05-05 01:14 33.64799 -84.43542 1007 ft 10 kts 213°
2026-05-05 01:14 33.64784 -84.43554 1007 ft 0 kts 211°
2026-05-05 01:14 33.64746 -84.43581 1007 ft 13 kts 212°
2026-05-05 01:14 33.64622 -84.43669 1006 ft 27 kts 210°
2026-05-05 01:15 33.64415 -84.43722 1006 ft 30 kts 175°
2026-05-05 01:15 33.64255 -84.43722 1006 ft 20 kts 180°
2026-05-05 01:15 33.64200 -84.43722 1006 ft 2 kts 180°
2026-05-05 01:15 33.64180 -84.43701 1006 ft 2 kts 109°
2026-05-05 01:16 33.64181 -84.43689 1006 ft 3 kts 89°
2026-05-05 01:16 33.64181 -84.43655 1006 ft 2 kts 90°
2026-05-05 01:16 33.64181 -84.43646 1006 ft 0 kts 90°
2026-05-05 01:16 33.64181 -84.43644 1006 ft 0 kts 90°